FENGYUN 1C DEB

Satellite information

Favourite Embed

Satellite Type and Status

DEBRISIN ORBIT

Key statistics

Satellite FENGYUN 1C DEB at a glance.

Uptime

9619

Days in orbit

Revolutions

≈ 13.7

Per day

Orbit

SSO

Sun Synchronous Orbit

Inclination

99.1

Latest

Satellite identification and parameters

Extended collection of information and parameters for FENGYUN 1C DEB.

Object identification

Identified? True

Debris? True

Object name: FENGYUN 1C DEB

International designator: 1999-025CKW

Object number (NORAD): 31895

Object ID (CCSDS): 31895

Country: PEOPLES REPUBLIC OF CHINA (PRC)

Current information (Y/N): Y

RCS size: SMALL

Orbital parameters

Period: 104.736 minutes

Inclination: 99.1062 deg

SMA: 7360.209 km

Apoapsis: 1150.801 km

Periapsis: 813.348 km

RAAN: 283.0629 deg

Eccentricy: 0.02292419

Argument of periapsis: 126.1474 deg

Mean anomaly: 236.1127 deg

Mean motion: 13.74888571 rev/day

Mean motion (dot): 0.00003111 rev/day2

B* drag term: 0.002731774 1/REarth

Two-line elements (TLE)

Creation date: Sept. 7, 2025, 3:09 a.m.

Reference frame: TEME

Reference center: EARTH

Epoch: Sept. 6, 2025, 7:18 p.m. UTC

TLE line 0: 0 FENGYUN 1C DEB

TLE line 1: 1 31895U 99025CKW 25249.80441848 .00003111 00000-0 27318-2 0 9999

TLE line 2: 2 31895 99.1062 283.0629 0229242 126.1474 236.1127 13.74888571605646

Live tracking on map

Real-time ground track for satellite FENGYUN 1C DEB.

In-orbit conjunctions

A list of the most updated potential collisions computed for object FENGYUN 1C DEB.

Target Orbit TCA Probability of collision Miss distance Type
RADIATION SAT (5E 1) LEO 2025-05-06 09:44:28 0.0001826909 550.0 (m) PAYLOAD
FENGYUN 1C DEB SSO 2024-11-10 17:01:02 0.0003077558 851.0 (m) DEBRIS

Associated space launch

Chinese polar orbiting meteorological satellite

FENGYUN 1C DEB was lifted into orbit during the mission ‘Long March 4B | Feng Yun 1C’, on board a Long March 4B space rocket.

The launch took place on May 10, 1999, 1:33 a.m. from Launch Complex 7.

For more information about the launch, click the button.

Launch to space Long March 4B | Feng Yun 1C
Long March 4B | Feng Yun 1C

Agency: N/A

Status: Launch Successful

Launch date: May 10, 1999, 1:33 a.m. UTC

Rocket: Long March 4B

Launch pad: Launch Complex 7

Location: Taiyuan Satellite Launch Center, People's Republic of China

...

Latest news about this satellite

There are no fresh news available about this satellite. Check back as we update our databases every day.


Newsletter sign-up

Weekly statistics, charts and insights to help you stay on top of the space industry.